K9MWM-1 Weather Reports


time (UTC)temp
C
wind
direction
speed
KPH
gust
KPH
rain 1hr
cm
rain 24hr
cm
rain mn
cm
humidity
%
barometer
mb
20260505171158 18 306 0.0 0.0 0.00 0.00 0.00
20260505170645 17 320 0.0 0.0 0.00 0.00 0.00
20260505170133 17 316 0.0 0.0 0.00 0.00 0.00
20260505165620 17 333 0.0 0.0 0.00 0.00 0.00
20260505165107 17 325 0.0 0.0 0.00 0.00 0.00
20260505164554 17 321 0.0 4.8 0.00 0.00 0.00
20260505163528 17 323 0.0 11.3 0.00 0.00 0.00
20260505163015 17 316 1.6 3.2 0.00 0.00 0.00
20260505162502 17 328 0.0 8.0 0.00 0.00 0.00
20260505161950 18 327 0.0 1.6 0.00 0.00 0.00
20260505161437 18 299 0.0 1.6 0.00 0.00 0.00
20260505160924 19 309 0.0 0.0 0.00 0.00 0.00
20260505160411 19 331 0.0 0.0 0.00 0.00 0.00
20260505152741 16 318 0.0 0.0 0.00 0.00 0.00
20260505152228 15 310 0.0 0.0 0.00 0.00 0.00
20260505151715 15 279 0.0 0.0 0.00 0.00 0.00
20260505151203 15 300 0.0 0.0 0.00 0.00 0.00
20260505150652 14 0 0.0 0.0 0.00 0.00 0.00
20260505150137 14 337 0.0 0.0 0.00 0.00 0.00
20260505140416 3 337 0.0 0.0 0.00 0.00 0.00
20260505130142 3 348 0.0 0.0 0.00 0.00 0.00
20260505124603 3 135 0.0 0.0 0.00 0.00 0.00
20260505123539 2 337 0.0 0.0 0.00 0.00 0.00
20260505123025 2 337 0.0 0.0 0.00 0.00 0.00
20260505122513 2 337 0.0 0.0 0.00 0.00 0.00
20260505122001 2 114 0.0 0.0 0.00 0.00 0.00
20260505121447 2 337 0.0 0.0 0.00 0.00 0.00
20260505120933 2 247 0.0 0.0 0.00 0.00 0.00
20260505120421 2 337 0.0 0.0 0.00 0.00 0.00
20260505115908 2 337 0.0 0.0 0.00 0.00 0.00
20260505115356 2 50 0.0 0.0 0.00 0.00 0.00
20260505114843 2 40 0.0 0.0 0.00 0.00 0.00
20260505113817 2 348 0.0 0.0 0.00 0.00 0.00
20260505113305 2 300 0.0 0.0 0.00 0.00 0.00
20260505112751 2 337 0.0 0.0 0.00 0.00 0.00
20260505112238 2 307 0.0 0.0 0.00 0.00 0.00
20260505111726 2 320 0.0 0.0 0.00 0.00 0.00
20260505111212 3 337 0.0 0.0 0.00 0.00 0.00
20260505110146 3 116 0.0 0.0 0.00 0.00 0.00
20260505102004 3 33 0.0 0.0 0.00 0.00 0.00
20260505101451 3 84 0.0 0.0 0.00 0.00 0.00
20260505100938 3 241 0.0 0.0 0.00 0.00 0.00
20260505100425 3 326 0.0 0.0 0.00 0.00 0.00
20260505095912 3 202 0.0 0.0 0.00 0.00 0.00
20260505095400 3 348 0.0 0.0 0.00 0.00 0.00
20260505094847 3 0 0.0 0.0 0.00 0.00 0.00
20260505094334 3 337 0.0 0.0 0.00 0.00 0.00
20260505093821 3 292 0.0 0.0 0.00 0.00 0.00
20260505093308 3 258 0.0 0.0 0.00 0.00 0.00
20260505092755 4 225 0.0 0.0 0.00 0.00 0.00
20260505092242 4 292 0.0 0.0 0.00 0.00 0.00
20260505091729 4 0 0.0 0.0 0.00 0.00 0.00
20260505091216 4 337 0.0 0.0 0.00 0.00 0.00
20260505090704 4 61 0.0 0.0 0.00 0.00 0.00
20260505090151 4 315 0.0 0.0 0.00 0.00 0.00
20260505085125 5 45 0.0 0.0 0.00 0.00 0.00
20260505084613 5 322 0.0 0.0 0.00 0.00 0.00
20260505084100 5 337 0.0 0.0 0.00 0.00 0.00
20260505083547 5 157 0.0 0.0 0.00 0.00 0.00
20260505083034 5 337 0.0 0.0 0.00 0.00 0.00
20260505082521 5 337 0.0 0.0 0.00 0.00 0.00
20260505082008 5 136 0.0 0.0 0.00 0.00 0.00
20260505081455 5 337 0.0 0.0 0.00 0.00 0.00
20260505080942 5 337 0.0 0.0 0.00 0.00 0.00
20260505080429 6 326 0.0 0.0 0.00 0.00 0.00
20260505075917 6 61 0.0 0.0 0.00 0.00 0.00
20260505075404 6 337 0.0 0.0 0.00 0.00 0.00
20260505074851 6 337 0.0 0.0 0.00 0.00 0.00
20260505074338 6 337 0.0 0.0 0.00 0.00 0.00
20260505073825 6 116 0.0 0.0 0.00 0.00 0.00
20260505073312 6 90 0.0 0.0 0.00 0.00 0.00
20260505072800 6 213 0.0 0.0 0.00 0.00 0.00
20260505072247 6 139 0.0 0.0 0.00 0.00 0.00
20260505071221 6 153 0.0 0.0 0.00 0.00 0.00
20260505070708 6 337 0.0 0.0 0.00 0.00 0.00
20260505070155 6 337 0.0 0.0 0.00 0.00 0.00
20260505065643 6 121 0.0 0.0 0.00 0.00 0.00
20260505065131 6 292 0.0 0.0 0.00 0.00 0.00
20260505064617 6 225 0.0 0.0 0.00 0.00 0.00
20260505064104 6 320 0.0 0.0 0.00 0.00 0.00
20260505063551 6 133 0.0 0.0 0.00 0.00 0.00
20260505063038 6 60 0.0 0.0 0.00 0.00 0.00
20260505062526 6 100 0.0 0.0 0.00 0.00 0.00
20260505062013 6 99 0.0 0.0 0.00 0.00 0.00
20260505061500 6 337 0.0 0.0 0.00 0.00 0.00
20260505060947 6 123 0.0 0.0 0.00 0.00 0.00
20260505060434 6 337 0.0 0.0 0.00 0.00 0.00
20260505055921 6 337 0.0 0.0 0.00 0.00 0.00
20260505055408 6 165 0.0 0.0 0.00 0.00 0.00
20260505054855 6 159 0.0 0.0 0.00 0.00 0.00
20260505054343 6 247 0.0 0.0 0.00 0.00 0.00
20260505053830 6 67 0.0 0.0 0.00 0.00 0.00
20260505053317 6 33 0.0 0.0 0.00 0.00 0.00
20260505052804 6 122 0.0 0.0 0.00 0.00 0.00
20260505052251 7 155 0.0 0.0 0.00 0.00 0.00
20260505051739 6 337 0.0 0.0 0.00 0.00 0.00
20260505051226 7 202 0.0 0.0 0.00 0.00 0.00
20260505050713 7 337 0.0 0.0 0.00 0.00 0.00
20260505050200 7 337 0.0 0.0 0.00 0.00 0.00
20260505040951 7 99 0.0 0.0 0.00 0.00 0.00
20260505040438 7 90 0.0 0.0 0.00 0.00 0.00
20260505035926 7 120 0.0 0.0 0.00 0.00 0.00
20260505035413 7 90 0.0 0.0 0.00 0.00 0.00
20260505034900 7 61 0.0 0.0 0.00 0.00 0.00
20260505034347 7 337 0.0 0.0 0.00 0.00 0.00
20260505033834 7 337 0.0 0.0 0.00 0.00 0.00
20260505032809 7 140 0.0 0.0 0.00 0.00 0.00
20260505031743 7 337 0.0 0.0 0.00 0.00 0.00
20260505031230 7 187 0.0 0.0 0.00 0.00 0.00
20260505030717 7 45 0.0 0.0 0.00 0.00 0.00
20260505030204 7 48 0.0 0.0 0.00 0.00 0.00
20260505025652 7 331 0.0 0.0 0.00 0.00 0.00
20260505025139 7 315 0.0 0.0 0.00 0.00 0.00
20260505024626 7 45 0.0 0.0 0.00 0.00 0.00
20260505024113 7 211 0.0 0.0 0.00 0.00 0.00
20260505023600 8 337 0.0 0.0 0.00 0.00 0.00
20260505023047 8 144 0.0 0.0 0.00 0.00 0.00
20260505022535 8 332 0.0 0.0 0.00 0.00 0.00
20260505022022 9 325 0.0 0.0 0.00 0.00 0.00
20260505021509 9 320 0.0 0.0 0.00 0.00 0.00
20260505020956 10 325 0.0 0.0 0.00 0.00 0.00
20260505020443 10 18 0.0 0.0 0.00 0.00 0.00
20260505015930 10 315 0.0 0.0 0.00 0.00 0.00
20260505015417 10 142 0.0 0.0 0.00 0.00 0.00
20260505014904 10 40 0.0 0.0 0.00 0.00 0.00
20260505014352 10 337 0.0 0.0 0.00 0.00 0.00
20260505013839 10 121 0.0 0.0 0.00 0.00 0.00
20260505013326 10 189 0.0 0.0 0.00 0.00 0.00
20260505012813 10 115 0.0 0.0 0.00 0.00 0.00
20260505012300 11 350 0.0 0.0 0.00 0.00 0.00
20260505011235 11 220 0.0 0.0 0.00 0.00 0.00
20260505010723 11 281 0.0 0.0 0.00 0.00 0.00
20260505010209 11 22 0.0 0.0 0.00 0.00 0.00
20260505005656 11 180 0.0 0.0 0.00 0.00 0.00
20260505005143 11 136 0.0 0.0 0.00 0.00 0.00
20260505004630 11 60 0.0 0.0 0.00 0.00 0.00
20260505004117 12 138 0.0 0.0 0.00 0.00 0.00
20260505003605 12 154 0.0 0.0 0.00 0.00 0.00
20260505003052 12 158 0.0 0.0 0.00 0.00 0.00
20260505002539 11 136 0.0 0.0 0.00 0.00 0.00
20260505002026 12 170 0.0 0.0 0.00 0.00 0.00
20260505001513 12 150 0.0 0.0 0.00 0.00 0.00
20260505001001 13 333 0.0 0.0 0.00 0.00 0.00
20260505000448 13 120 0.0 0.0 0.00 0.00 0.00
20260504235935 13 150 0.0 0.0 0.00 0.00 0.00
20260504235422 14 175 0.0 0.0 0.00 0.00 0.00
20260504234909 14 152 0.0 0.0 0.00 0.00 0.00
20260504234356 14 180 0.0 3.2 0.00 0.00 0.00
20260504233843 15 151 0.0 0.0 0.00 0.00 0.00
20260504233330 15 148 0.0 1.6 0.00 0.00 0.00
20260504232818 15 142 0.0 9.7 0.00 0.00 0.00
20260504232306 15 132 0.0 6.4 0.00 0.00 0.00
20260504231752 16 156 0.0 0.0 0.00 0.00 0.00
20260504231239 16 156 0.0 0.0 0.00 0.00 0.00
20260504230726 17 154 0.0 0.0 0.00 0.00 0.00
20260504230214 17 150 0.0 0.0 0.00 0.00 0.00
20260504225700 16 172 0.0 1.6 0.00 0.00 0.00
20260504225148 16 144 0.0 0.0 0.00 0.00 0.00
20260504224635 17 159 0.0 0.0 0.00 0.00 0.00
20260504224122 17 155 0.0 0.0 0.00 0.00 0.00
20260504223609 17 167 0.0 3.2 0.00 0.00 0.00
20260504223056 17 155 0.0 6.4 0.00 0.00 0.00
20260504222543 17 159 0.0 3.2 0.00 0.00 0.00
20260504222031 17 173 0.0 0.0 0.00 0.00 0.00
20260504221518 17 150 0.0 4.8 0.00 0.00 0.00
20260504221005 17 145 0.0 0.0 0.00 0.00 0.00
20260504220452 17 148 0.0 0.0 0.00 0.00 0.00
20260504215939 17 158 0.0 1.6 0.00 0.00 0.00
20260504214913 18 142 0.0 3.2 0.00 0.00 0.00
20260504214401 18 146 0.0 0.0 0.00 0.00 0.00
20260504213848 18 136 0.0 6.4 0.00 0.00 0.00
20260504213335 18 144 0.0 3.2 0.00 0.00 0.00
20260504212822 18 152 0.0 4.8 0.00 0.00 0.00
20260504212309 18 161 0.0 0.0 0.00 0.00 0.00
20260504211757 17 169 0.0 0.0 0.00 0.00 0.00
20260504211244 17 177 0.0 0.0 0.00 0.00 0.00
20260504210731 17 162 0.0 0.0 0.00 0.00 0.00
20260504210218 17 160 0.0 0.0 0.00 0.00 0.00
20260504205705 16 132 0.0 0.0 0.00 0.00 0.00
20260504205152 16 337 0.0 0.0 0.00 0.00 0.00
20260504204639 16 137 0.0 0.0 0.00 0.00 0.00
20260504204126 16 157 0.0 0.0 0.00 0.00 0.00
20260504203614 16 157 0.0 0.0 0.00 0.00 0.00
20260504203101 16 236 0.0 0.0 0.00 0.00 0.00
20260504202548 15 199 0.0 0.0 0.00 0.00 0.00
20260504202035 14 160 0.0 0.0 0.00 0.00 0.00
20260504201522 14 197 0.0 0.0 0.00 0.00 0.00
20260504201010 14 285 0.0 0.0 0.00 0.00 0.00
20260504200457 13 325 0.0 0.0 0.00 0.00 0.00
20260504195944 12 187 0.0 0.0 0.00 0.00 0.00
20260504195431 11 45 0.0 0.0 0.00 0.00 0.00
20260504194918 11 341 0.0 0.0 0.00 0.00 0.00
20260504194405 12 20 0.0 0.0 0.00 0.00 0.00
20260504193852 12 312 0.0 0.0 0.00 0.00 0.00
20260504193339 14 167 0.0 0.0 0.00 0.00 0.00
20260504192827 15 310 0.0 0.0 0.00 0.00 0.00
20260504192314 15 155 0.0 0.0 0.00 0.00 0.00
20260504191248 16 144 0.0 0.0 0.00 0.00 0.00
20260504190735 16 337 0.0 0.0 0.00 0.00 0.00
20260504190223 15 141 0.0 1.6 0.00 0.00 0.00
20260504185710 14 142 0.0 0.0 0.00 0.00 0.00
20260504185200 14 160 0.0 0.0 0.00 0.00 0.00
20260504184131 11 337 0.0 0.0 0.00 0.00 0.00
20260504183618 11 127 0.0 8.0 0.00 0.00 0.00
20260504183105 11 337 0.0 1.6 0.00 0.00 0.00
20260504182552 12 323 0.0 8.0 0.00 0.00 0.00
20260504182040 13 15 0.0 3.2 0.00 0.00 0.00
20260504181527 14 145 0.0 1.6 0.00 0.00 0.00
20260504181014 15 172 0.0 3.2 0.00 0.00 0.00
20260504180501 17 148 0.0 8.0 0.00 0.00 0.00
20260504175948 18 145 0.0 14.5 0.00 0.00 0.00
20260504175436 20 315 0.0 4.8 0.00 0.00 0.00
20260504174923 21 307 0.0 1.6 0.00 0.00 0.00
20260504174410 22 169 0.0 0.0 0.00 0.00 0.00
20260504173857 22 300 0.0 0.0 0.00 0.00 0.00
20260504173344 22 322 0.0 0.0 0.00 0.00 0.00
20260504172831 21 315 0.0 0.0 0.00 0.00 0.00
20260504172318 21 191 0.0 0.0 0.00 0.00 0.00
20260504171805 20 337 0.0 0.0 0.00 0.00 0.00